Stations météo

réclame
Mon MeteoGroup
Capo Caccia, Italie (16522): Température de l'air & dewpoint: 14.10.2017 21:00:00 - 20.10.2017 21:00:00 (CEST)Capo Caccia, Italie (16522): Vitesse du vent: 14.10.2017 21:00:00 - 20.10.2017 21:00:00 (CEST)Capo Caccia, Italie (16522): Direction du vent: 14.10.2017 21:00:00 - 20.10.2017 21:00:00 (CEST)Capo Caccia, Italie (16522): reduced air pressure: 14.10.2017 21:00:00 - 20.10.2017 21:00:00 (CEST)Capo Caccia, Italie (16522): visibility: 14.10.2017 21:00:00 - 20.10.2017 21:00:00 (CEST)Capo Caccia, Italie (16522): Ensoleillement: 14.10.2017 21:00:00 - 20.10.2017 21:00:00 (CEST)
Date & Time tt [°C] td [°C] ff [km/h] ff [knt] dd ppp [hPa] vv [km] sd [min]
20.10.2017 21:00:00 23,0 10,4 8 4 W 1018,5 20 -
20.10.2017 20:00:00 23,0 12,0 8 4 W 1018,3 20 0
20.10.2017 19:00:00 23,0 13,8 4 2 NW 1017,6 20 42
20.10.2017 18:00:00 24,0 7,6 11 6 WNW 1016,5 20 60
20.10.2017 17:00:00 24,0 7,2 13 7 NW 1016,5 20 60
20.10.2017 16:00:00 24,6 9,0 16 9 WNW 1015,5 20 60
20.10.2017 15:00:00 25,4 13,3 15 8 WNW 1015,7 20 60
20.10.2017 14:00:00 25,6 14,4 9 5 WNW 1016,4 20 60
20.10.2017 13:00:00 25,0 9,3 5 3 SW 1016,3 20 60
20.10.2017 12:00:00 24,6 8,1 9 5 NE 1016,3 20 60
20.10.2017 11:00:00 22,4 10,2 11 6 ENE 1016,5 20 60
20.10.2017 10:00:00 20,0 9,9 13 7 NE 1015,8 20 60
20.10.2017 09:00:00 18,6 12,1 11 6 NNE 1015,3 20 42
20.10.2017 08:00:00 18,0 11,3 13 7 NNE 1014,4 20 0
20.10.2017 07:00:00 18,0 11,8 15 8 NNE 1013,8 20 -
20.10.2017 06:00:00 18,0 12,2 15 8 NNE 1013,2 20 -
20.10.2017 05:00:00 18,0 11,5 18 10 NNE 1013,3 20 -
20.10.2017 04:00:00 18,8 10,9 13 7 NNE 1013,8 20 -
20.10.2017 03:00:00 19,4 10,7 11 6 NNE 1013,8 20 -
20.10.2017 02:00:00 20,0 10,1 4 2 N 1013,6 20 -
20.10.2017 01:00:00 20,0 9,6 0 0 N 1013,6 20 -
20.10.2017 00:00:00 20,0 10,1 8 4 ESE 1013,1 20 -
19.10.2017 23:00:00 20,2 12,2 5 3 NE 1012,9 20 -
19.10.2017 22:00:00 21,0 14,2 11 6 E 1012,6 20 -
19.10.2017 21:00:00 23,2 11,0 24 13 SSE 1012,3 20 -
19.10.2017 20:00:00 23,8 7,4 31 17 SE 1011,5 20 0
19.10.2017 19:00:00 23,6 6,8 28 15 SSE 1011,5 20 24
19.10.2017 18:00:00 24,4 8,8 21 11 SE 1011,7 20 48
19.10.2017 17:00:00 25,0 7,6 21 11 SE 1011,8 20 48
19.10.2017 16:00:00 24,6 9,0 18 10 SSE 1012,2 20 54
19.10.2017 15:00:00 25,4 8,8 15 8 SE 1012,3 20 60
19.10.2017 14:00:00 24,2 10,5 18 10 SE 1013,3 20 60
19.10.2017 13:00:00 24,2 5,1 9 5 SE 1014,3 20 60
19.10.2017 12:00:00 24,4 4,2 8 4 E 1014,3 20 60
19.10.2017 11:00:00 21,6 7,1 11 6 NE 1014,4 20 60
19.10.2017 10:00:00 20,0 8,4 13 7 NE 1014,6 20 42
19.10.2017 09:00:00 19,0 9,2 13 7 ENE 1014,7 20 18
19.10.2017 08:00:00 18,0 8,6 11 6 E 1014,9 20 0
19.10.2017 07:00:00 19,0 8,4 15 8 ESE 1015,1 20 -
19.10.2017 06:00:00 19,0 6,8 16 9 SE 1015,1 20 -
19.10.2017 05:00:00 19,0 9,8 16 9 SE 1015,1 20 -
19.10.2017 04:00:00 18,6 11,2 8 4 E 1015,5 20 -
19.10.2017 03:00:00 18,8 14,5 5 3 E 1015,9 20 -
19.10.2017 02:00:00 19,0 15,1 5 3 E 1016,1 20 -
19.10.2017 01:00:00 19,0 14,7 8 4 SE 1016,5 20 -
19.10.2017 00:00:00 19,2 11,7 13 7 ESE 1016,9 20 -
18.10.2017 23:00:00 19,6 6,7 13 7 SE 1016,8 20 -
18.10.2017 22:00:00 18,6 9,4 8 4 E 1016,9 20 -
18.10.2017 21:00:00 18,6 8,6 9 5 ENE 1016,8 20 -
18.10.2017 20:00:00 18,6 10,7 8 4 ENE 1016,8 20 0
18.10.2017 19:00:00 19,2 7,9 5 3 NE 1016,8 20 18
18.10.2017 18:00:00 21,4 6,5 0 0 N 1016,7 20 48
18.10.2017 17:00:00 21,4 6,5 2 1 WNW 1017,2 20 60
18.10.2017 16:00:00 22,4 6,2 8 4 W 1017,1 20 60
18.10.2017 15:00:00 22,6 5,1 5 3 SW 1017,6 20 60
18.10.2017 14:00:00 22,4 2,5 9 5 WSW 1018,4 20 60
18.10.2017 13:00:00 22,0 12,0 4 2 WSW 1019,2 20 60
18.10.2017 12:00:00 21,0 8,3 0 0 N 1019,8 20 60
18.10.2017 11:00:00 20,6 12,1 0 0 N 1019,7 20 60
18.10.2017 10:00:00 19,2 14,2 0 0 N 1019,9 15 60
18.10.2017 09:00:00 17,8 16,0 0 0 N 1020,0 12 12
18.10.2017 08:00:00 17,2 17,2 0 0 N 1020,0 20 0
18.10.2017 07:00:00 17,4 17,4 2 1 S 1020,0 20 -
18.10.2017 06:00:00 18,0 17,7 5 3 S 1020,0 20 -
18.10.2017 05:00:00 17,8 17,8 9 5 SSE 1020,5 20 -
18.10.2017 04:00:00 18,0 17,7 11 6 S 1021,0 20 -
18.10.2017 03:00:00 18,0 17,7 13 7 SE 1021,4 20 -
18.10.2017 02:00:00 16,2 15,7 8 4 SSE 1022,3 20 -
18.10.2017 01:00:00 17,8 16,5 8 4 E 1022,1 20 -
18.10.2017 00:00:00 18,4 15,7 0 0 N 1022,4 20 -
17.10.2017 23:00:00 18,4 15,1 0 0 N 1022,4 20 -
17.10.2017 22:00:00 18,8 12,1 0 0 N 1022,9 20 -
17.10.2017 21:00:00 18,8 18,0 4 2 N 1022,8 20 -
17.10.2017 20:00:00 19,0 17,0 5 3 NNW 1022,4 20 0
17.10.2017 19:00:00 19,2 17,2 4 2 N 1022,5 20 12
17.10.2017 18:00:00 20,2 17,6 9 5 WNW 1022,6 20 60
17.10.2017 17:00:00 21,8 17,6 11 6 WNW 1022,8 20 60
17.10.2017 16:00:00 22,0 17,4 9 5 ESE 1022,8 20 60
17.10.2017 15:00:00 22,0 16,9 8 4 SSW 1023,1 20 60
17.10.2017 14:00:00 22,0 16,9 8 4 SSW 1024,6 20 60
17.10.2017 13:00:00 21,6 17,6 5 3 SSW 1024,9 20 60
17.10.2017 12:00:00 21,4 17,4 5 3 SSW 1025,3 20 60
17.10.2017 11:00:00 21,4 17,2 4 2 SSW 1025,3 20 60
17.10.2017 10:00:00 20,8 11,2 0 0 N 1025,0 12 60
17.10.2017 09:00:00 19,0 16,2 0 0 N 1025,1 20 30
17.10.2017 08:00:00 18,8 13,9 0 0 N 1025,1 20 0
17.10.2017 07:00:00 19,0 17,0 0 0 N 1025,1 20 -
17.10.2017 06:00:00 19,0 17,3 5 3 S 1025,1 20 -
17.10.2017 05:00:00 19,2 17,5 8 4 SSE 1025,1 20 -
17.10.2017 04:00:00 19,0 17,3 8 4 ESE 1025,6 20 -
17.10.2017 03:00:00 19,4 17,7 5 3 SE 1026,3 20 -
17.10.2017 02:00:00 19,6 13,5 0 0 N 1026,6 20 -
17.10.2017 01:00:00 19,8 10,0 0 0 N 1026,8 20 -
17.10.2017 00:00:00 19,0 9,8 0 0 N 1026,9 20 -
16.10.2017 23:00:00 19,2 13,6 8 4 ENE 1026,9 20 -
16.10.2017 22:00:00 19,2 12,5 11 6 NE 1027,1 20 -
16.10.2017 21:00:00 19,0 11,6 11 6 NE 1027,1 20 -
16.10.2017 20:00:00 19,2 16,6 13 7 NE 1027,1 20 0
16.10.2017 19:00:00 20,0 15,9 4 2 N 1027,0 20 48
16.10.2017 18:00:00 21,0 17,4 5 3 N 1027,0 20 60
16.10.2017 17:00:00 21,4 17,4 11 6 WNW 1026,9 20 60
16.10.2017 16:00:00 22,0 18,0 11 6 WNW 1026,9 20 60
16.10.2017 15:00:00 22,0 17,6 9 5 WNW 1027,4 20 60
16.10.2017 14:00:00 22,4 18,0 5 3 WSW 1027,9 20 60
16.10.2017 13:00:00 22,0 18,0 5 3 WSW 1028,1 20 60
16.10.2017 12:00:00 20,6 16,6 5 3 SW 1028,2 20 60
16.10.2017 11:00:00 20,4 17,4 2 1 NNE 1028,2 15 60
16.10.2017 10:00:00 19,6 17,5 0 0 N 1028,0 15 60
16.10.2017 09:00:00 17,8 16,8 0 0 N 1027,3 15 12
16.10.2017 08:00:00 17,2 16,2 0 0 N 1027,4 15 0
16.10.2017 07:00:00 17,4 16,4 0 0 N 1027,3 15 -
16.10.2017 06:00:00 18,4 17,1 4 2 NE 1027,5 15 -
16.10.2017 05:00:00 18,4 17,1 8 4 NE 1027,8 15 -
16.10.2017 04:00:00 18,4 17,1 4 2 NE 1028,1 15 -
16.10.2017 03:00:00 18,0 16,7 4 2 ENE 1028,2 15 -
16.10.2017 02:00:00 17,8 16,5 5 3 NE 1028,2 15 -
16.10.2017 01:00:00 17,6 16,3 8 4 NE 1028,2 15 -
16.10.2017 00:00:00 17,8 16,5 9 5 ENE 1028,2 15 -
15.10.2017 23:00:00 18,0 16,3 15 8 NE 1028,2 15 -
15.10.2017 22:00:00 18,0 16,3 16 9 NE 1028,2 15 -
15.10.2017 21:00:00 18,4 16,7 18 10 NE 1027,7 15 -
15.10.2017 20:00:00 18,6 16,0 16 9 NNE 1027,9 15 0
15.10.2017 19:00:00 20,0 16,4 15 8 NE 1027,6 20 12
15.10.2017 18:00:00 20,4 15,8 9 5 N 1027,6 20 60
15.10.2017 17:00:00 20,4 17,6 8 4 N 1027,6 20 60
15.10.2017 16:00:00 20,6 17,4 15 8 WNW 1027,7 20 60
15.10.2017 15:00:00 21,0 16,2 16 9 WNW 1027,9 20 60
15.10.2017 14:00:00 21,2 14,6 13 7 WNW 1028,5 15 60
15.10.2017 13:00:00 21,0 15,8 8 4 N 1029,1 20 60
15.10.2017 12:00:00 21,0 16,0 0 0 N 1029,1 20 60
15.10.2017 11:00:00 20,4 14,3 0 0 N 1029,2 20 60
15.10.2017 10:00:00 19,6 15,5 5 3 NE 1028,9 20 60
15.10.2017 09:00:00 18,6 16,9 0 0 N 1028,7 15 24
15.10.2017 08:00:00 18,0 16,5 0 0 N 1028,2 15 0
15.10.2017 07:00:00 18,0 17,2 0 0 N 1028,2 15 -
15.10.2017 06:00:00 18,0 17,0 0 0 N 1028,2 15 -
15.10.2017 05:00:00 17,8 17,0 0 0 N 1028,2 15 -
15.10.2017 04:00:00 17,8 16,8 0 0 N 1028,2 20 -
15.10.2017 03:00:00 18,0 16,9 5 3 ESE 1028,2 20 -
15.10.2017 02:00:00 18,0 16,7 13 7 NE 1028,2 20 -
15.10.2017 01:00:00 18,0 16,5 13 7 NE 1028,2 20 -
15.10.2017 00:00:00 18,0 16,3 21 11 NE 1028,0 20 -
14.10.2017 23:00:00 18,0 16,5 26 14 NNE 1027,8 20 -
14.10.2017 22:00:00 18,0 16,5 24 13 NNE 1027,8 20 -
14.10.2017 21:00:00 18,0 16,5 22 12 NNE 1027,7 20 -

tt = Température de l'air
td = dewpoint
ff = Vitesse du vent
dd = Direction du vent
ppp = reduced air pressure
vv = visibility
sd = Ensoleillement

stations d'obs. à proximité